Find Starlink 11245

NORAD ID: 60925 Int'l Des: 2024-155 Owner: SPXS Country: US Constellation: starlink operational
LEOCIRCULAR

Live Position

Loading 3D Globe...

About Starlink 11245

Description loading...

Upcoming Passes

Passes for default location (London). Set your location on the main map for personalized predictions.

Altitude History

Loading altitude history...

Two-Line Element Set

1 60925U 24155B 26127.35359775 -.00000206 00000-0 31614-5 0 9990
2 60925 53.1589 52.2484 0001308 134.4413 225.6712 15.69716827 97612
Epoch: May 7, 2026 • Age: 20 hours

Current Status

Altitude 360.4 km
Velocity 7.70 km/s
Sub-Earth Point 18.02°N, 129.45°E
Launch Date Aug 31, 2024
Age 1.6 years
Type internet

Technical Details

Classification Payload
Mass 960.00 kg
Dry Mass 910.00 kg
Total Mass 960.00 kg
Length 0.30 m
Diameter 4.10 m
Span 29.00 m
Shape Box + pan
Manufacturer SPXS
Bus Type Starlink V2MD
Phase Status In Orbit
Owner/State SPXS/US

Most Searched